Tracking 29892 objects as of 21-Nov-2024
HD Live streaming from Space Station
objects crossing your sky now

ONEWEB-0504

Track ONEWEB-0504 now!
10-day predictions
ONEWEB-0504 is classified as:


NORAD ID: 54122
Int'l Code: 2022-138K
Perigee: 1,191.3 km
Apogee: 1,194.5 km
Inclination: 87.9 °
Period: 109.1 minutes
Semi major axis: 7563 km
RCS: Unknown
Launch date: October 22, 2022
Source: United Kingdom (UK)
Launch site: SRIHARIKOTA (SRI)
Your satellite tracking list
Your tracking list is empty




NASA's NSSDC Master Catalog

Two Line Element Set (TLE):
1 54122U 22138K   24325.27094986  .00000068  00000-0  13876-3 0  9993
2 54122  87.9189  59.0860 0002099  96.2666 263.8706 13.19722739101133
Source of the keplerian elements: AFSPC